CYCOCYYH

Guest
Details From CYCO - KUGLUKTUK
To CYYH - TALOYOAK
Flight Number -
Tags generated
Created
Modified
Stats Distance 513 nm / 950 km
Max Altitude 35,000 ft / 10,668 m
Waypoints 5
Social Downloads 0
Likes 0
Share VATSIM

Download

Looking for another format? Having issues loading an existing format? Contact us
Advertisement - Login to hide

Notes

Basic altitude profile: - Ascent Rate: 2500ft/min - Ascent Speed: 250kts - Cruise Altitude: 35000ft - Cruise Speed: 420kts - Descent Rate: 1500ft/min - Descent Speed: 250kts Options: - Use NATs: yes - Use PACOTS: yes - Use low airways: yes - Use high airways: yes

Route

CYCO LIDEB CB RR30 YHK CYYH

ID Type Via Altitude Latitude Longitude Leg Dist Tot Dist Heading (true) Name
O CYCO APT - 0 ft / 0 m 67.81667˚ -115.14403˚ - 0 nm - KUGLUKTUK
LIDEB FIX - 35,000 ft / 10,668 m 68.25000˚ -110.00000˚ 118 nm 118 nm 75° / 80° -
CB NDB - 35,000 ft / 10,668 m 69.11478˚ -105.01592˚ 120 nm 238 nm 62° / 67° CAMBRIDGE BAY NDB
YHK NDB RR30 (AWY-LO) 15,800 ft / 4,816 m 68.62611˚ -95.85833˚ 200 nm 439 nm 94° / 103° GJOA HAVEN NDB
O CYYH APT - 0 ft / 0 m 69.54611˚ -93.57611˚ 73 nm 512 nm 40° / 43° TALOYOAK

Altitude Profile

Advertisement - Login to hide

Weather


0- 5 10 15 20 25 30 35+ Temperature / ° C

Clouds and Precipitation
Forecast for 2018-05-25 12:00 UTC. Updated 6 hours ago

Ground ~20,000 ft ~40,000 ft Winds

CYCO

Details ICAO CYCO (YCO)
Name KUGLUKTUK
Region Canada
Timezone America/Cambridge_Bay (UTC-6.0)
Stats Elevation 74 ft / 23 m (AMSL)
Location 67.816667° -115.144028°
Runways 1
Magnetic Variation 17.292° E

METAR

CYCO 251600Z 08013KT 15SM FEW010 OVC016 02/M00 A2977 RMK SF1ST7 SLP086

Decode

TAF

TAF CYCO 251238Z 2513/2601 10012KT 3SM -RASN BR SCT007 OVC015 TEMPO 2513/2601 P6SM NSW SCT015 OVC050 RMK NXT FCST BY 251900Z

Decode

Departure Runways

ID Width Length Bearing (true) Bearing (mag) Surface Threshold Offset Overrun Length
12T 100 ft / 30 m 5,497 ft / 1,676 m 121.07° 103.78° Gravel 0 ft / 0 m 0 ft / 0 m
30T 100 ft / 30 m 5,497 ft / 1,676 m 301.10° 283.81° Gravel 0 ft / 0 m 0 ft / 0 m

CYYH

Details ICAO CYYH (YYH)
Name TALOYOAK
Region Canada
Timezone America/Cambridge_Bay (UTC-6.0)
Stats Elevation 92 ft / 28 m (AMSL)
Location 69.546111° -93.576113°
Runways 1
Magnetic Variation 12.418° W

METAR

CYYH 251600Z 16006KT 15SM FEW050 FEW100 M11/M14 A3015 RMK SC1AC1 SC TR SLP216

Decode

TAF

TAF CYYH 251138Z 2512/2524 VRB03KT P6SM SCT050 RMK NXT FCST BY 251800Z

Decode

Destination Runways

ID Width Length Bearing (true) Bearing (mag) Surface Threshold Offset Overrun Length
15T 100 ft / 30 m 4,008 ft / 1,222 m 151.85° 164.27° Gravel 0 ft / 0 m 0 ft / 0 m
33T 100 ft / 30 m 4,008 ft / 1,222 m 331.87° 344.29° Gravel 0 ft / 0 m 0 ft / 0 m